We konden geen weer-waarchuwingen ophalen. Ga rechtstreeks naar de Meteoalarm site : www.meteoalarm.eu en controleer daar .



Onweer radar Meer informatie blitzortung!


Regen radar Meer informatie rain snow radar


Bezoek onze andere website:

Template documentation
and downloads

And another site



15 daagse weersverwachting Gävle (SE)

  • Overzicht
  • Per uur
  • 15 dagen
  • Extra
  • Vergelijk
  • Kaarten
  • Dagkaart
  • Meer »
  • Info
  • Statistieken
  • Directe link
    Temp 6h Neerslag Wind  
 05:13     20:39    Daglengte: 15:26 Vandaag
02:00
17°
 
3
08:00
16°
 
3
14:00
19°
 
3
20:00
17°
 
3
 05:16     20:36    Daglengte: 15:20 Morgen
02:00
17°
 
2
08:00
19°
 
2
14:00
27°
 
3
20:00
23°
 
1
 05:18     20:33    Daglengte: 15:15 Zaterdag 20 Aug
02:00
20°
3.7 mm
2
08:00
19°
6.3 mm
2
warningclass
14:00
21°
8.7 mm
3
warningclass
20:00
20°
28.7 mm
2
Locatie info
Region: Gävleborgs län
Latitude: 60.6737°N
Longitude: 17.1456°E
3 masl
Postcode: 803 20
Temp/Neerslag /Baro Onweer/Dauwpunt
    Temp Baro 1h Neerslag Dauwpunt Wind UV Bewolking  
 05:13     20:39    Daglengte: 15:26 Vandaag
02:00
17°
1014.7 hPa
13%
14.7°
3
Windvlaag: -4.1 m/s
74%
03:00
16°
1015.0 hPa
14%
13.9°
3
Windvlaag: -3.6 m/s
58%
04:00
16°
1015.4 hPa
14%
13.5°
3
Windvlaag: -3.9 m/s
75%
05:00
16°
1015.6 hPa
13%
13.2°
3
Windvlaag: -4.5 m/s
79%
06:00
16°
1015.9 hPa
13%
13.2°
3
Windvlaag: -4.4 m/s
84%
07:00
16°
1016.4 hPa
14%
13.0°
3
Windvlaag: -4.1 m/s
80%
08:00
16°
1017.0 hPa
13%
13.0°
3
Windvlaag: -4.1 m/s
75%
09:00
17°
1017.4 hPa
13%
13.4°
3
Windvlaag: -4.1 m/s
66%
10:00
18°
1017.4 hPa
13%
14.1°
3
Windvlaag: -3.7 m/s
82%
11:00
18°
1017.5 hPa
13%
14.5°
3
Windvlaag: -3.1 m/s
80%
12:00
19°
1017.6 hPa
13%
14.5°
3
Windvlaag: -3 m/s
78%
13:00
19°
1017.5 hPa
13%
14.9°
3
Windvlaag: -3.2 m/s
76%
14:00
19°
1017.3 hPa
14%
15.2°
3
Windvlaag: -3.2 m/s
78%
15:00
20°
1016.9 hPa
13%
16.0°
3
Windvlaag: -3 m/s
82%
16:00
19°
1016.8 hPa
13%
16.0°
3
Windvlaag: -3.5 m/s
76%
17:00
19°
1016.6 hPa
13%
15.8°
4
Windvlaag: -3.3 m/s
84%
18:00
18°
1016.4 hPa
13%
15.9°
3
Windvlaag: -3.2 m/s
76%
19:00
18°
1016.1 hPa
13%
16.2°
3
Windvlaag: -3.4 m/s
63%
20:00
17°
1016.0 hPa
13%
16.3°
3
Windvlaag: -3.1 m/s
64%
21:00
17°
1016.0 hPa
13%
16.4°
3
Windvlaag: -3.9 m/s
64%
22:00
17°
1015.9 hPa
14%
16.3°
3
Windvlaag: -3.5 m/s
68%
23:00
17°
1015.6 hPa
14%
16.4°
2
Windvlaag: -3.2 m/s
65%
 05:16     20:36    Daglengte: 15:20 Morgen
00:00
17°
1015.4 hPa
14%
16.6°
2
Windvlaag: -2.6 m/s
71%
01:00
17°
1015.1 hPa
14%
16.7°
2
Windvlaag: -1.9 m/s
79%
02:00
17°
1014.7 hPa
14%
16.7°
2
Windvlaag: -2.1 m/s
84%
03:00
17°
1014.4 hPa
14%
16.9°
1
Windvlaag: -2.2 m/s
79%
04:00
17°
1014.1 hPa
14%
17.0°
1
Windvlaag: -2.1 m/s
80%
05:00
17°
1013.8 hPa
14%
17.0°
1
Windvlaag: -2 m/s
79%
06:00
17°
1013.8 hPa
15%
17.0°
1
Windvlaag: -1.7 m/s
82%
07:00
17°
1013.8 hPa
14%
17.1°
1
Windvlaag: -2 m/s
70%
08:00
19°
1013.7 hPa
14%
17.8°
2
Windvlaag: -1.5 m/s
72%
09:00
20°
1013.6 hPa
14%
18.4°
2
Windvlaag: -1.2 m/s
19%
10:00
21°
1013.5 hPa
14%
18.6°
2
Windvlaag: 2 m/s
17%
11:00
22°
1013.3 hPa
14%
18.8°
2
Windvlaag: 3.1 m/s
12%
12:00
23°
1013.1 hPa
14%
18.9°
3
Windvlaag: 3.9 m/s
7%
13:00
25°
1012.8 hPa
16%
18.8°
3
Windvlaag: 5.2 m/s
8%
14:00
27°
1012.5 hPa
61%
16.6°
3
Windvlaag: 6.7 m/s
31%
15:00
27°
1012.2 hPa
74%
13.9°
4
Windvlaag: 6.4 m/s
17%
16:00
27°
1012.3 hPa
71%
13.3°
3
Windvlaag: 5.1 m/s
19%
17:00
26°
1012.2 hPa
25%
12.7°
3
Windvlaag: 3.4 m/s
21%
18:00
26°
1012.4 hPa
61%
12.5°
3
Windvlaag: 2.8 m/s
55%
19:00
25°
1012.4 hPa
69%
13.6°
2
Windvlaag: 3.7 m/s
78%
20:00
23°
1012.6 hPa
50%
15.8°
1
Windvlaag: 3.5 m/s
77%
21:00
22°
1012.7 hPa
55%
17.4°
1
Windvlaag: 3.1 m/s
76%
22:00
21°
1012.9 hPa
15%
18.0°
2
Windvlaag: 3.3 m/s
62%
23:00
21°
1011.6 hPa
21%
15.9°
2
Windvlaag: 5.1 m/s
92%
 05:18     20:33    Daglengte: 15:15 Zaterdag 20 Aug
00:00
21°
1011.5 hPa 1.6 mm
47%
17.3°
3
Windvlaag: -0.7 m/s
98%
01:00
20°
1011.7 hPa 1.2 mm
100%
17.8°
2
Windvlaag: -0.6 m/s
94%
02:00
20°
1011.3 hPa 0.9 mm
100%
17.8°
2
Windvlaag: 2.5 m/s
100%
03:00
19°
1010.9 hPa 0.9 mm
100%
18.2°
2
Windvlaag: 2.3 m/s
98%
04:00
19°
1010.6 hPa 0.7 mm
100%
18.4°
1
Windvlaag: -2.1 m/s
99%
05:00
19°
1010.1 hPa 1.0 mm
100%
18.1°
2
Windvlaag: -0.7 m/s
100% warningclass
06:00
18°
1010.2 hPa 1.1 mm
99%
17.9°
2
Windvlaag: -0.4 m/s
100%
07:00
19°
1010.4 hPa 1.0 mm
100%
17.9°
2
Windvlaag: 0.1 m/s
100% warningclass
08:00
19°
1009.4 hPa 1.6 mm
100%
18.1°
2
Windvlaag: 5.2 m/s
100% warningclass
09:00
19°
1008.9 hPa 1.1 mm
100%
18.1°
2
Windvlaag: 4.5 m/s
100%
10:00
20°
1008.6 hPa 1.1 mm
100%
18.3°
3
Windvlaag: 4.4 m/s
100%
11:00
20°
1008.1 hPa 1.5 mm
100%
18.1°
3
Windvlaag: 4 m/s
100%
12:00
21°
1007.7 hPa 1.1 mm
100%
18.2°
3
Windvlaag: 2.7 m/s
76%
13:00
21°
1007.5 hPa 1.9 mm
100%
20.2°
3
Windvlaag: 3.6 m/s
100% warningclass
14:00
21°
1007.4 hPa 2.0 mm
100%
20.5°
3
Windvlaag: 4.4 m/s
84% warningclass
15:00
22°
1007.4 hPa
100%
21.6°
3
Windvlaag: 2.9 m/s
48%
16:00
22°
1007.5 hPa 3.6 mm
100%
21.3°
3
Windvlaag: 3.1 m/s
66% warningclass
17:00
22°
1007.7 hPa 5.5 mm
100%
21.2°
3
Windvlaag: 3.6 m/s
20%
18:00
21°
1008.1 hPa 8.6 mm
100%
20.4°
3
Windvlaag: 3.2 m/s
20%
19:00
20°
1008.3 hPa 11.0 mm
100%
20.1°
2
Windvlaag: 2.7 m/s
83%
20:00
20°
1008.6 hPa
77%
19.3°
2
Windvlaag: 1.5 m/s
46%
21:00
19°
1008.8 hPa
21%
18.6°
2
Windvlaag: 1.4 m/s
20%
22:00
18°
1008.9 hPa
21%
18.1°
2
Windvlaag: 2.2 m/s
19%
23:00
18°
1008.9 hPa
21%
17.2°
3
Windvlaag: 4.5 m/s
33%
 05:20     20:30    Daglengte: 15:10 Zondag 21 Aug
00:00
17°
1009.2 hPa
21%
16.0°
3
Windvlaag: 6.7 m/s
20%
01:00
16°
1009.5 hPa
21%
15.2°
2
Windvlaag: 7.7 m/s
14%
Temp/Neerslag /Baro Onweer/Dauwpunt
    Temp Baro Neerslag Dauwpunt Wind Bewolking  
 05:13     20:39    Daglengte: 15:26 Vandaag
02:00
17°
1014.7 hPa   14.7°
3
74%
05:00
16°
1015.6 hPa   13.2°
3
79%
08:00
16°
1017.0 hPa   13.0°
3
75%
11:00
18°
1017.5 hPa   14.5°
3
80%
14:00
19°
1017.3 hPa   15.2°
3
78%
17:00
19°
1016.6 hPa   15.8°
4
84%
20:00
17°
1016.0 hPa   16.3°
3
64%
23:00
17°
1015.6 hPa   16.4°
2
65%
 05:16     20:36    Daglengte: 15:20 Morgen
02:00
17°
1014.7 hPa   16.7°
2
84%
05:00
17°
1013.8 hPa   17.0°
1
79%
08:00
19°
1013.7 hPa   17.8°
2
72%
11:00
22°
1013.3 hPa   18.8°
2
12%
14:00
27°
1012.5 hPa   16.6°
3
31%
17:00
26°
1012.2 hPa   12.7°
3
21%
20:00
23°
1012.6 hPa   15.8°
1
77%
23:00
21°
1011.6 hPa   15.9°
2
92%
 05:18     20:33    Daglengte: 15:15 Zaterdag 20 Aug
02:00
20°
1011.3 hPa 3.7 mm 17.8°
2
100%
05:00
19°
1010.1 hPa 2.5 mm 18.1°
2
100% warningclass
08:00
19°
1009.4 hPa 3.7 mm 18.1°
2
100% warningclass
11:00
20°
1008.1 hPa 3.7 mm 18.1°
3
100%
14:00
21°
1007.4 hPa 5.0 mm 20.5°
3
84% warningclass
17:00
22°
1007.7 hPa 9.1 mm 21.2°
3
20%
20:00
20°
1008.6 hPa 19.6 mm 19.3°
2
46%
23:00
18°
1008.9 hPa   17.2°
3
33%
 05:20     20:30    Daglengte: 15:10 Zondag 21 Aug
02:00
15°
1009.6 hPa   14.0°
3
49%
05:00
15°
1009.2 hPa 24.3 mm 14.0°
3
1%
08:00
15°
1010.2 hPa 24.3 mm 12.5°
3
1%
11:00
19°
1010.6 hPa 24.3 mm 11.0°
4
1%
14:00
23°
1010.4 hPa 24.3 mm 11.7°
4
0%
17:00
23°
1010.5 hPa 24.3 mm 11.8°
4
0%
20:00
18°
1011.5 hPa 24.3 mm 12.5°
2
1%
23:00
16°
1011.5 hPa 24.3 mm 11.5°
2
1%
 05:23     20:27    Daglengte: 15:04 Maandag 22 Aug
02:00
14°
1012.0 hPa 24.3 mm 11.1°
2
1%
05:00
14°
1012.1 hPa 24.8 mm 11.3°
2
1%
08:00
14°
1013.1 hPa 25.3 mm 12.0°
3
1%
11:00
19°
1013.6 hPa 25.3 mm 9.9°
4
0%
14:00
21°
1014.5 hPa 25.3 mm 8.3°
4
0%
17:00
22°
1015.5 hPa 25.3 mm 8.1°
3
0%
20:00
17°
1017.5 hPa 25.3 mm 9.0°
2
0%
23:00
14°
1018.9 hPa 25.3 mm 8.5°
3
0%
 05:25     20:24    Daglengte: 14:59 Dinsdag 23 Aug
02:00
13°
1020.3 hPa 25.3 mm 6.9°
2
0%
05:00
12°
1021.3 hPa 25.3 mm 6.0°
2
1%
08:00
15°
1022.5 hPa 25.3 mm 7.5°
2
1%
11:00
21°
1022.8 hPa 25.3 mm 9.2°
1
0%
14:00
22°
1023.0 hPa 25.3 mm 10.8°
2
0%
17:00
20°
1023.3 hPa 25.3 mm 12.7°
3
0%
20:00
17°
1023.6 hPa 25.3 mm 11.7°
2
0%
23:00
14°
1024.4 hPa 25.3 mm 8.6°
2
0%
 05:28     20:21    Daglengte: 14:53 Woensdag 24 Aug
02:00
12°
1024.6 hPa 25.3 mm 6.0°
3
0%
05:00
11°
1024.5 hPa 25.3 mm 5.7°
2
0%
08:00
16°
1025.0 hPa 25.3 mm 8.8°
2
0%
11:00
21°
1024.4 hPa 25.3 mm 9.9°
2
0%
14:00
23°
1023.2 hPa 25.3 mm 11.1°
2
0%
17:00
22°
1022.2 hPa 25.3 mm 14.7°
2
1%
20:00
18°
1022.0 hPa 25.3 mm 14.6°
1
1%
23:00
17°
1022.3 hPa   8.4°
2
1%
 05:30     20:18    Daglengte: 14:48 Donderdag 25 Aug
02:00
16°
1022.5 hPa 50.7 mm 8.9°
2
1%
08:00
18°
1024.5 hPa 50.9 mm 10.0°
2
1%
14:00
19°
1027.0 hPa 50.9 mm 9.9°
5
1%
20:00
14°
1027.6 hPa 51.0 mm 8.2°
2
1%
 05:33     20:15    Daglengte: 14:42 Vrijdag 26 Aug
02:00
14°
1027.9 hPa 51.2 mm 6.7°
2
1%
08:00
13°
1028.2 hPa 56.6 mm 10.4°
2
1%
14:00
14°
1027.8 hPa 61.5 mm 10.8°
2
1%
20:00
14°
1026.5 hPa 61.7 mm 9.7°
1
1%
 05:35     20:12    Daglengte: 14:37 Zaterdag 27 Aug
02:00
12°
1026.4 hPa 61.7 mm 8.1°
1
1%
08:00
15°
1025.9 hPa 61.7 mm 8.9°
2
1%
14:00
20°
1026.2 hPa 61.7 mm 11.5°
3
1%
20:00
17°
1023.9 hPa 0.3 mm 11.8°
1
50%
 05:38     20:09    Daglengte: 14:31 Zondag 28 Aug
02:00
14°
1024.2 hPa 0.6 mm 10.4°
1
49%
08:00
16°
1023.9 hPa 0.4 mm 11.0°
1
54%
14:00
21°
1023.5 hPa 0.3 mm 12.5°
1
60%
20:00
17°
1022.7 hPa 0.3 mm 12.1°
1
56%
 05:40     20:06    Daglengte: 14:26 Maandag 29 Aug
02:00
14°
1022.5 hPa 0.2 mm 10.9°
1
45%
08:00
15°
1021.8 hPa 0.6 mm 11.5°
1
46%
14:00
20°
1021.3 hPa 0.3 mm 12.9°
1
61%
20:00
16°
1020.4 hPa 0.4 mm 11.1°
1
61%
 05:43     20:02    Daglengte: 14:19 Dinsdag 30 Aug
02:00
13°
1020.3 hPa 0.5 mm 9.7°
1
57%
08:00
15°
1019.6 hPa 0.2 mm 10.1°
1
59%
14:00
20°
1019.4 hPa 0.2 mm 11.4°
1
54%
20:00
15°
1018.8 hPa 0.4 mm 10.3°
0
47%
 05:45     19:59    Daglengte: 14:14 Woensdag 31 Aug
02:00
13°
1018.9 hPa 0.2 mm 9.3°
1
44%
08:00
14°
1018.3 hPa 0.4 mm 9.9°
1
48%
14:00
19°
1017.6 hPa 0.4 mm 11.4°
1
59%
20:00
15°
1016.8 hPa 0.8 mm 10.6°
0
63%
 05:47     19:56    Daglengte: 14:09 Donderdag 01 Sep
02:00
13°
1016.7 hPa 1.2 mm 9.5°
1
56%
08:00
13°
1016.0 hPa 1.0 mm 9.4°
1
54%
14:00
19°
1015.3 hPa 0.5 mm 10.8°
0
52%
20:00
15°
1014.3 hPa 0.6 mm 10.1°
1
58%
  CAPE Lifted Index Hail Supercell Tornado SRH 3km CL BTM PRES CL TOP PRES Swiss DWD icon SMHI TS
 05:13     20:39    Daglengte: 15:26 Vandaag
02:00 0 J/kg 1.7 K 0 % 0 % 0 % 0 m²/s² 0 0 3.47 3
03:00 0 J/kg 1.7 K 0 % 0 % 0 % 0 m²/s² 0 0 3.47 3
04:00 0 J/kg 2.0 K 0 % 0 % 0 % 0 m²/s² 0 0 3.77 3
05:00 0 J/kg 2.3 K 0 % 0 % 0 % 0 m²/s² 0 0 4.13 3
06:00 0 J/kg 2.9 K 0 % 0 % 0 % 0 m²/s² 0 0 4.85 3
07:00 0 J/kg 3.3 K 0 % 0 % 0 % 0 m²/s² 0 0 5.46 3
08:00 0 J/kg 4.0 K 0 % 0 % 0 % 0 m²/s² 0 0 6.31 3
09:00 0 J/kg 3.7 K 0 % 0 % 0 % 0 m²/s² 0 0 6.22 3
10:00 0 J/kg 3.1 K 0 % 0 % 0 % 0 m²/s² 0 0 5.62 3
11:00 0 J/kg 2.7 K 0 % 0 % 0 % 0 m²/s² 0 0 5.07 3
12:00 0 J/kg 2.1 K 0 % 0 % 0 % 0 m²/s² 0 0 3.63 3
13:00 0 J/kg 1.6 K 0 % 0 % 0 % 0 m²/s² 0 0 2.8 3
14:00 0 J/kg 1.5 K 0 % 0 % 0 % 0 m²/s² 0 0 2.82 3
15:00 0 J/kg 1.0 K 0 % 0 % 0 % 0 m²/s² 0 0 2.32 3
16:00 0 J/kg -0.1 K 0 % 0 % 0 % 0 m²/s² 0 0 1.25 3
17:00 0 J/kg -1.0 K 0 % 0 % 0 % 0 m²/s² 0 0 0.2 3
18:00 0 J/kg -1.9 K 0 % 0 % 0 % 0 m²/s² 0 0 -0.58 3
19:00 2 J/kg -3.2 K 0 % 0 % 0 % 0 m²/s² 0 0 -1.73 3
20:00 2 J/kg -3.9 K 0 % 0 % 0 % 0 m²/s² 0 0 -2.58 3
21:00 2 J/kg -3.4 K 0 % 0 % 0 % 0 m²/s² 0 0 -2.14 3
22:00 2 J/kg -3.0 K 0 % 0 % 0 % 0 m²/s² 0 0 -1.8 3
23:00 1 J/kg -1.8 K 0 % 0 % 0 % 0 m²/s² 0 0 -0.48 3
 05:16     20:36    Daglengte: 15:20 Morgen
00:00 1 J/kg -0.4 K 0 % 0 % 0 % 0 m²/s² 0 0 0.71 3
01:00 1 J/kg -2.5 K 0 % 0 % 0 % 0 m²/s² 0 0 -1.51 3
02:00 2 J/kg -2.9 K 0 % 0 % 0 % 0 m²/s² 0 0 -1.94 3
03:00 1 J/kg -2.0 K 0 % 0 % 0 % 0 m²/s² 0 0 -0.35 3
04:00 1 J/kg -1.3 K 0 % 0 % 0 % 0 m²/s² 0 0 0.89 45
05:00 1 J/kg -1.8 K 0 % 0 % 0 % 0 m²/s² 0 0 0.3 45
06:00 0 J/kg -2.2 K 0 % 0 % 0 % 0 m²/s² 0 0 -0.49 45
07:00 0 J/kg -1.3 K 0 % 0 % 0 % 0 m²/s² 0 0 1.16 45
08:00 0 J/kg -1.0 K 0 % 0 % 0 % 0 m²/s² 0 0 1.13 3
09:00 0 J/kg -0.6 K 0 % 0 % 0 % 0 m²/s² 0 0 0.96 1
10:00 169 J/kg -1.5 K 0 % 0 % 0 % 0 m²/s² 0 0 0.12 1
11:00 211 J/kg -2.0 K 0 % 0 % 0 % 0 m²/s² 0 0 -0.2 1
12:00 206 J/kg -1.5 K 0 % 0 % 0 % 0 m²/s² 0 0 -0.06 2
13:00 324 J/kg -2.3 K 0 % 0 % 0 % 0 m²/s² 0 0 -1.07 2
14:00 664 J/kg -2.6 K 0 % 0 % 0 % 0 m²/s² 0 0 -1.37 2
15:00 609 J/kg -2.1 K 0 % 0 % 0 % 0 m²/s² 0 0 -0.66 2
16:00 746 J/kg -2.9 K 0 % 0 % 0 % 0 m²/s² 0 0 -1.79 2
17:00 565 J/kg -2.8 K 0 % 0 % 0 % 0 m²/s² 0 0 -1.45 3
18:00 470 J/kg -2.4 K 0 % 0 % 0 % 0 m²/s² 0 0 -1.32 3
19:00 451 J/kg -2.4 K 0 % 0 % 0 % 0 m²/s² 0 0 -2.1 3
20:00 189 J/kg -1.7 K 0 % 0 % 0 % 0 m²/s² 0 0 -1.49 3
21:00 85 J/kg -2.1 K 0 % 0 % 0 % 0 m²/s² 0 0 -1.56 3
22:00 57 J/kg -1.6 K 0 % 0 % 0 % 0 m²/s² 0 0 -1.24 3
23:00 65 J/kg -1.4 K 0 % 0 % 0 % 0 m²/s² 0 0 -1.4 3
 05:18     20:33    Daglengte: 15:15 Zaterdag 20 Aug
00:00 170 J/kg -0.8 K 0 % 0 % 0 % 0 m²/s² 0 0 -0.41 3
01:00 259 J/kg -1.1 K 0 % 0 % 0 % 0 m²/s² 0 0 -0.71 80
02:00 274 J/kg -1.4 K 0 % 0 % 0 % 0 m²/s² 0 0 0.01 80
03:00 239 J/kg -2.2 K 0 % 0 % 0 % 0 m²/s² 0 0 -0.07 80
04:00 127 J/kg -1.8 K 0 % 0 % 0 % 0 m²/s² 0 0 0.39 80
05:00 155 J/kg -1.6 K 0 % 0 % 0 % 0 m²/s² 0 0 0.2 95
06:00 128 J/kg -1.0 K 0 % 0 % 0 % 0 m²/s² 0 0 0.32 80
07:00 74 J/kg -0.8 K 0 % 0 % 0 % 0 m²/s² 0 0 0.31 95
08:00 67 J/kg -1.3 K 0 % 0 % 0 % 0 m²/s² 0 0 -0.28 95
09:00 30 J/kg -0.6 K 0 % 0 % 0 % 0 m²/s² 0 0 0.12 80
10:00 168 J/kg -1.0 K 0 % 0 % 0 % 0 m²/s² 0 0 -0.82 61
11:00 323 J/kg -1.9 K 0 % 0 % 0 % 0 m²/s² 0 0 -1.9 80
12:00 439 J/kg -2.0 K 0 % 0 % 0 % 0 m²/s² 0 0 -1.97 80
13:00 441 J/kg -1.8 K 0 % 0 % 0 % 0 m²/s² 0 0 -1.77 95
14:00 528 J/kg -2.2 K 0 % 0 % 0 % 0 m²/s² 0 0 -2.2 80
15:00 521 J/kg -1.9 K 0 % 0 % 0 % 0 m²/s² 0 0 -1.9 3
16:00 380 J/kg -1.5 K 0 % 0 % 0 % 0 m²/s² 0 0 -1.5 95
17:00 41 J/kg 0.2 K 0 % 0 % 0 % 0 m²/s² 0 0 0.2 80
18:00 0 J/kg 1.1 K 0 % 0 % 0 % 0 m²/s² 0 0 1.1 80
19:00 0 J/kg 1.8 K 0 % 0 % 0 % 0 m²/s² 0 0 1.8 80
20:00 0 J/kg 2.5 K 0 % 0 % 0 % 0 m²/s² 0 0 2.5 2
21:00 0 J/kg 2.8 K 0 % 0 % 0 % 0 m²/s² 0 0 2.8 2
22:00 0 J/kg 3.5 K 0 % 0 % 0 % 0 m²/s² 0 0 3.62 1
23:00 0 J/kg 1.6 K 0 % 0 % 0 % 0 m²/s² 0 0 2.41 3
 05:20     20:30    Daglengte: 15:10 Zondag 21 Aug
00:00 0 J/kg 0.8 K 0 % 0 % 0 % 0 m²/s² 0 0 3.05 2
01:00 0 J/kg 0.7 K 0 % 0 % 0 % 0 m²/s² 0 0 4.84 0
Temp Baro Wind Neerslag
  EWN Forecast EWN WRFDA DWD ICON FMI HIRLAM MET Norway GFS
 05:13     20:39    Daglengte: 15:26 Vandaag
02:00 16.8° 1014.7 hPa 3.1 m/s 0.0 mm 15.7° 1013.7 hPa 2.8 m/s 0.4 mm 16.3° 1014.8 hPa 2.9 m/s -2.0 mm 16.7° 1015.2 hPa 3.1 m/s 0.0 mm 16.3° 1013.8 hPa 3.1 m/s
05:00 15.8° 1015.6 hPa 3.3 m/s 0.0 mm 14.3° 1014.6 hPa 2.9 m/s 1.3 mm 15.3° 1015.7 hPa 2.9 m/s 0.0 mm 16.0° 1016.4 hPa 3.3 m/s 0.0 mm 14.7° 1014.9 hPa 3.5 m/s
08:00 16.3° 1017.0 hPa 3.4 m/s 0.0 mm 16.2° 1016.4 hPa 3.8 m/s 1.3 mm 16.1° 1017.0 hPa 3.4 m/s 0.0 mm 16.2° 1017.6 hPa 3.0 m/s 0.0 mm 16.8° 1016.5 hPa 3.5 m/s
11:00 18.2° 1017.5 hPa 2.9 m/s 0.0 mm 18.6° 1016.5 hPa 3.4 m/s 1.3 mm 18.5° 1017.5 hPa 2.8 m/s 0.0 mm 17.5° 1018.4 hPa 3.2 m/s 0.0 mm 19.4° 1016.7 hPa 3.2 m/s
14:00 19.2° 1017.3 hPa 3.2 m/s 0.0 mm 19.5° 1016.4 hPa 3.8 m/s 1.3 mm 19.2° 1017.4 hPa 3.1 m/s 0.0 mm 18.2° 1017.9 hPa 3.4 m/s 0.0 mm 20.3° 1017.0 hPa 3.0 m/s
17:00 18.5° 1016.6 hPa 3.6 m/s 0.0 mm 17.9° 1016.4 hPa 4.0 m/s 1.3 mm 18.8° 1016.5 hPa 3.8 m/s 0.0 mm 18.5° 1016.8 hPa 3.7 m/s 0.0 mm 18.0° 1016.2 hPa 4.1 m/s
20:00 17.4° 1016.0 hPa 3.2 m/s 0.0 mm 15.9° 1016.2 hPa 3.5 m/s 1.3 mm 17.9° 1016.1 hPa 3.0 m/s 0.0 mm 17.5° 1015.7 hPa 3.8 m/s 0.0 mm 15.4° 1016.2 hPa 2.8 m/s
23:00 16.8° 1015.6 hPa 2.5 m/s 0.0 mm 15.7° 1015.8 hPa 2.5 m/s 1.3 mm 16.9° 1015.8 hPa 1.8 m/s 0.0 mm 17.6° 1014.7 hPa 3.0 m/s 0.0 mm 15.3° 1016.1 hPa 1.5 m/s
 05:16     20:36    Daglengte: 15:20 Morgen
02:00 16.8° 1014.7 hPa 1.5 m/s 0.0 mm 16.1° 1015.1 hPa 1.6 m/s 1.3 mm 16.9° 1015.1 hPa 1.1 m/s 0.0 mm 17.5° 1012.8 hPa 1.6 m/s 0.0 mm 15.1° 1015.3 hPa 1.0 m/s
05:00 17.1° 1013.8 hPa 1.3 m/s 0.0 mm 16.1° 1014.1 hPa 0.9 m/s 1.3 mm 17.3° 1014.2 hPa 1.2 m/s 0.0 mm 17.5° 1011.3 hPa 1.5 m/s 0.0 mm 15.2° 1014.9 hPa 0.6 m/s
08:00 18.8° 1013.7 hPa 1.5 m/s 0.0 mm 19.1° 1014.0 hPa 1.0 m/s 1.3 mm 19.1° 1014.4 hPa 1.5 m/s 0.0 mm 19.0° 1010.7 hPa 2.6 m/s 0.0 mm 18.5° 1015.1 hPa 0.8 m/s
11:00 21.6° 1013.3 hPa 2.1 m/s 0.0 mm 23.1° 1013.1 hPa 2.9 m/s 1.3 mm 24.4° 1013.6 hPa 1.9 m/s 0.0 mm 20.8° 1011.7 hPa 4.0 m/s 0.0 mm 22.5° 1014.7 hPa 2.2 m/s
14:00 26.7° 1012.5 hPa 3.4 m/s 0.0 mm 26.4° 1011.5 hPa 4.7 m/s 1.3 mm 28.0° 1012.5 hPa 3.1 m/s 0.0 mm 24.4° 1012.1 hPa 4.8 m/s 0.0 mm 25.9° 1013.7 hPa 2.4 m/s
17:00 26.4° 1012.2 hPa 3.4 m/s 0.0 mm 27.5° 1009.4 hPa 5.7 m/s 2.5 mm 28.0° 1011.5 hPa 3.1 m/s 0.0 mm 24.7° 1012.6 hPa 4.6 m/s 0.0 mm 21.8° 1013.1 hPa 3.0 m/s
20:00 23.4° 1012.6 hPa 1.4 m/s 0.0 mm 24.9° 1008.4 hPa 4.4 m/s 3.0 mm 24.3° 1011.6 hPa 0.9 m/s 0.0 mm 20.6° 1014.0 hPa 1.5 m/s 0.0 mm 21.3° 1013.1 hPa 3.2 m/s
23:00 21.3° 1011.6 hPa 2.4 m/s 0.0 mm 22.9° 1008.2 hPa 6.6 m/s 4.0 mm 21.0° 1011.8 hPa 2.0 m/s 0.0 mm 18.8° 1013.2 hPa 2.3 m/s
 05:18     20:33    Daglengte: 15:15 Zaterdag 20 Aug
02:00 19.7° 1011.3 hPa 2.1 m/s 3.7 mm 21.0° 1009.5 hPa 4.9 m/s 4.5 mm 19.5° 1011.3 hPa 1.0 m/s 0.8 mm 18.0° 1012.7 hPa 2.0 m/s
05:00 18.6° 1010.1 hPa 1.7 m/s 2.5 mm 19.6° 1009.7 hPa 3.3 m/s 4.8 mm 18.5° 1010.0 hPa 1.5 m/s 2.1 mm 17.5° 1011.3 hPa 1.0 m/s
08:00 18.9° 1009.4 hPa 2.3 m/s 3.7 mm 19.5° 1011.0 hPa 2.8 m/s 5.1 mm 18.8° 1009.0 hPa 2.1 m/s 2.8 mm 18.0° 1011.0 hPa 1.5 m/s
11:00 20.2° 1008.1 hPa 3.3 m/s 3.7 mm 21.3° 1010.7 hPa 1.7 m/s 5.3 mm 19.9° 1007.4 hPa 3.7 m/s 2.8 mm 19.3° 1010.7 hPa 2.3 m/s
14:00 21.0° 1007.4 hPa 3.0 m/s 5.0 mm 20.7° 1009.4 hPa 2.9 m/s 10.0 mm 21.1° 1006.9 hPa 3.0 m/s 2.5 mm 18.4° 1009.4 hPa 2.1 m/s
17:00 21.6° 1007.7 hPa 2.6 m/s 9.1 mm 19.5° 1009.0 hPa 2.9 m/s 33.4 mm 22.1° 1007.3 hPa 2.6 m/s 1.0 mm 18.5° 1008.9 hPa 1.4 m/s
20:00 19.8° 1008.6 hPa 2.1 m/s 19.6 mm 17.3° 1008.8 hPa 1.5 m/s 92.6 mm 20.4° 1008.5 hPa 2.3 m/s 1.0 mm 18.4° 1009.5 hPa 1.2 m/s
23:00 17.7° 1008.9 hPa 2.8 m/s 0.0 mm 15.9° 1008.3 hPa 2.7 m/s 112.9 mm 18.1° 1009.1 hPa 2.9 m/s 0.0 mm 18.0° 1009.1 hPa 1.5 m/s
 05:20     20:30    Daglengte: 15:10 Zondag 21 Aug
02:00 14.9° 1009.6 hPa 2.6 m/s 0.0 mm 14.7° 1008.0 hPa 3.0 m/s 112.9 mm 14.9° 1010.0 hPa 2.5 m/s 0.0 mm 15.4° 1009.1 hPa 2.3 m/s
05:00 15.0° 1009.2 hPa 3.1 m/s 24.3 mm 15.0° 1009.2 hPa 3.1 m/s 24.3 mm
08:00 14.9° 1010.2 hPa 3.5 m/s 24.3 mm 14.9° 1010.2 hPa 3.5 m/s 24.3 mm
11:00 19.3° 1010.6 hPa 4.1 m/s 24.3 mm 19.3° 1010.6 hPa 4.1 m/s 24.3 mm
14:00 22.6° 1010.4 hPa 4.0 m/s 24.3 mm 22.6° 1010.4 hPa 4.0 m/s 24.3 mm
17:00 23.4° 1010.5 hPa 3.7 m/s 24.3 mm 23.4° 1010.5 hPa 3.7 m/s 24.3 mm
20:00 18.2° 1011.5 hPa 2.2 m/s 24.3 mm 18.2° 1011.5 hPa 2.2 m/s 24.3 mm
23:00 15.6° 1011.5 hPa 2.4 m/s 24.3 mm 15.6° 1011.5 hPa 2.4 m/s 24.3 mm
 05:23     20:27    Daglengte: 15:04 Maandag 22 Aug
02:00 14.3° 1012.0 hPa 2.5 m/s 24.3 mm 14.3° 1012.0 hPa 2.5 m/s 24.3 mm
05:00 13.6° 1012.1 hPa 2.4 m/s 24.8 mm 13.6° 1012.1 hPa 2.4 m/s 24.8 mm
08:00 14.0° 1013.1 hPa 3.1 m/s 25.3 mm 14.0° 1013.1 hPa 3.1 m/s 25.3 mm
11:00 18.8° 1013.6 hPa 3.9 m/s 25.3 mm 18.8° 1013.6 hPa 3.9 m/s 25.3 mm
14:00 21.5° 1014.5 hPa 4.5 m/s 25.3 mm 21.5° 1014.5 hPa 4.5 m/s 25.3 mm
17:00 22.0° 1015.5 hPa 3.4 m/s 25.3 mm 22.0° 1015.5 hPa 3.4 m/s 25.3 mm
20:00 17.3° 1017.5 hPa 1.8 m/s 25.3 mm 17.3° 1017.5 hPa 1.8 m/s 25.3 mm
23:00 14.0° 1018.9 hPa 2.5 m/s 25.3 mm 14.0° 1018.9 hPa 2.5 m/s 25.3 mm
 05:25     20:24    Daglengte: 14:59 Dinsdag 23 Aug
02:00 12.6° 1020.3 hPa 2.5 m/s 25.3 mm 12.6° 1020.3 hPa 2.5 m/s 25.3 mm
05:00 11.8° 1021.3 hPa 1.6 m/s 25.3 mm 11.8° 1021.3 hPa 1.6 m/s 25.3 mm
08:00 15.4° 1022.5 hPa 1.6 m/s 25.3 mm 15.4° 1022.5 hPa 1.6 m/s 25.3 mm
11:00 20.6° 1022.8 hPa 1.4 m/s 25.3 mm 20.6° 1022.8 hPa 1.4 m/s 25.3 mm
14:00 22.0° 1023.0 hPa 1.8 m/s 25.3 mm 22.0° 1023.0 hPa 1.8 m/s 25.3 mm
17:00 20.4° 1023.3 hPa 2.6 m/s 25.3 mm 20.4° 1023.3 hPa 2.6 m/s 25.3 mm
20:00 16.5° 1023.6 hPa 2.4 m/s 25.3 mm 16.5° 1023.6 hPa 2.4 m/s 25.3 mm
23:00 13.7° 1024.4 hPa 2.2 m/s 25.3 mm 13.7° 1024.4 hPa 2.2 m/s 25.3 mm
 05:28     20:21    Daglengte: 14:53 Woensdag 24 Aug
02:00 12.3° 1024.6 hPa 2.5 m/s 25.3 mm 12.3° 1024.6 hPa 2.5 m/s 25.3 mm
05:00 11.3° 1024.5 hPa 2.2 m/s 25.3 mm 11.3° 1024.5 hPa 2.2 m/s 25.3 mm
08:00 15.5° 1025.0 hPa 2.1 m/s 25.3 mm 15.5° 1025.0 hPa 2.1 m/s 25.3 mm
11:00 21.3° 1024.4 hPa 2.3 m/s 25.3 mm 21.3° 1024.4 hPa 2.3 m/s 25.3 mm
14:00 23.4° 1023.2 hPa 2.4 m/s 25.3 mm 23.4° 1023.2 hPa 2.4 m/s 25.3 mm
17:00 22.4° 1022.2 hPa 2.0 m/s 25.3 mm 22.4° 1022.2 hPa 2.0 m/s 25.3 mm
20:00 18.0° 1022.0 hPa 1.0 m/s 25.3 mm 18.0° 1022.0 hPa 1.0 m/s 25.3 mm
23:00 16.7° 1022.3 hPa 2.1 m/s 25.3 mm 16.7° 1022.3 hPa 2.1 m/s 25.3 mm
 05:30     20:18    Daglengte: 14:48 Donderdag 25 Aug
02:00 15.8° 1022.5 hPa 2.2 m/s 25.3 mm 15.8° 1022.5 hPa 2.2 m/s 25.3 mm
08:00 17.6° 1024.5 hPa 2.5 m/s 25.5 mm 17.6° 1024.5 hPa 2.5 m/s 25.5 mm
14:00 18.8° 1027.0 hPa 4.7 m/s 25.5 mm 18.8° 1027.0 hPa 4.7 m/s 25.5 mm
20:00 14.4° 1027.6 hPa 1.6 m/s 25.5 mm 14.4° 1027.6 hPa 1.6 m/s 25.5 mm
 05:33     20:15    Daglengte: 14:42 Vrijdag 26 Aug
02:00 14.3° 1027.9 hPa 1.6 m/s 25.7 mm 14.3° 1027.9 hPa 1.6 m/s 25.7 mm
08:00 12.5° 1028.2 hPa 2.0 m/s 29.6 mm 12.5° 1028.2 hPa 2.0 m/s 29.6 mm
14:00 14.4° 1027.8 hPa 1.6 m/s 30.8 mm 14.4° 1027.8 hPa 1.6 m/s 30.8 mm
20:00 14.0° 1026.5 hPa 0.7 m/s 30.8 mm 14.0° 1026.5 hPa 0.7 m/s 30.8 mm
 05:35     20:12    Daglengte: 14:37 Zaterdag 27 Aug
02:00 12.2° 1026.4 hPa 1.3 m/s 30.8 mm 12.2° 1026.4 hPa 1.3 m/s 30.8 mm
08:00 15.4° 1025.9 hPa 1.8 m/s 30.8 mm 15.4° 1025.9 hPa 1.8 m/s 30.8 mm
14:00 20.2° 1026.2 hPa 2.8 m/s 30.8 mm 20.2° 1026.2 hPa 2.8 m/s 30.8 mm
20:00 16.8° 1023.9 hPa 1.0 m/s 0.3 mm
 05:38     20:09    Daglengte: 14:31 Zondag 28 Aug
02:00 13.8° 1024.2 hPa 1.1 m/s 0.6 mm
08:00 15.5° 1023.9 hPa 1.3 m/s 0.4 mm
14:00 21.0° 1023.5 hPa 1.0 m/s 0.3 mm
20:00 17.1° 1022.7 hPa 0.5 m/s 0.3 mm
 05:40     20:06    Daglengte: 14:26 Maandag 29 Aug
02:00 14.4° 1022.5 hPa 0.9 m/s 0.2 mm
08:00 15.5° 1021.8 hPa 0.9 m/s 0.6 mm
14:00 20.3° 1021.3 hPa 1.0 m/s 0.3 mm
20:00 16.1° 1020.4 hPa 0.8 m/s 0.4 mm
 05:43     20:02    Daglengte: 14:19 Dinsdag 30 Aug
02:00 13.4° 1020.3 hPa 1.0 m/s 0.5 mm
08:00 14.6° 1019.6 hPa 1.2 m/s 0.2 mm
14:00 19.5° 1019.4 hPa 1.0 m/s 0.2 mm
20:00 15.5° 1018.8 hPa 0.2 m/s 0.4 mm
 05:45     19:59    Daglengte: 14:14 Woensdag 31 Aug
02:00 12.9° 1018.9 hPa 1.1 m/s 0.2 mm
08:00 14.0° 1018.3 hPa 1.1 m/s 0.4 mm
14:00 18.8° 1017.6 hPa 0.6 m/s 0.4 mm
20:00 15.4° 1016.8 hPa 0.2 m/s 0.8 mm
 05:47     19:56    Daglengte: 14:09 Donderdag 01 Sep
02:00 12.6° 1016.7 hPa 0.8 m/s 1.2 mm
08:00 13.5° 1016.0 hPa 0.8 m/s 1.0 mm
14:00 18.6° 1015.3 hPa 0.2 m/s 0.5 mm
20:00 15.1° 1014.3 hPa 0.5 m/s 0.6 mm
FMI Hirlam - 7.5 km EWN WRFDA - 12 km DWD ICON - 7 km GFS - 25 km Basiskaart






























































Updatetijd (Europe/Amsterdam) Resolutie Lengte Stap
FMI Hirlam 19:15, 01:15, 07:15, 13:15 7.5 km 49h 1h
EWN WRFDA 22:30, 04:30, 10:30, 16:30 12 km 73h 1h
DWD ICON 23:45, 05:45, 11:45, 17:45 7 km 75h 1h
GFS 20:00, 02:00, 08:00, 14:00 25 km 237h 3h
30+ mm
25-30 mm
20-25 mm
15-20 mm
10-15 mm
6-10 mm
4-6 mm
2-4 mm
1-2 mm
0.5-1 mm
0.2-0.5 mm
0.1-0.2 mm
30+ mm
25-30 mm
20-25 mm
15-20 mm
10-15 mm
6-10 mm
4-6 mm
2-4 mm
1-2 mm
0.5-1 mm
0.2-0.5 mm
0.1-0.2 mm
Sneeuwval
Natte sneeuw
Hagel
Vorst
30+ mm
25-30 mm
20-25 mm
15-20 mm
10-15 mm
6-10 mm
4-6 mm
2-4 mm
1-2 mm
0.5-1 mm
0.2-0.5 mm
0.1-0.2 mm
Sneeuwval
Natte sneeuw
Hagel
Vorst
Onweer
50 mm
40 mm
30 mm
26 mm
22 mm
18 mm
14 mm
10 mm
9 mm
8 mm
7 mm
6 mm
5 mm
4.5 mm
4 mm
3.5 mm
3 mm
2.5 mm
2 mm
1.5 mm
1 mm
0.8 mm
0.6 mm
0.4 mm
0.2 mm
0.05 mm
35°
30°
25°
20°
15°
10°
-5°
-10°
-15°
-20°
-25°
-30°
-35°
33> m/s
29 m/s
25 m/s
21 m/s
17 m/s
14 m/s
11 m/s
8 m/s
5 m/s
3 m/s
0 m/s
2600 J/kg
2400 J/kg
2200 J/kg
2000 J/kg
1800 J/kg
1600 J/kg
1400 J/kg
1200 J/kg
1000 J/kg
800 J/kg
600 J/kg
400 J/kg
200 J/kg
70 dBZ
65 dBZ
60 dBZ
55 dBZ
50 dBZ
45 dBZ
40 dBZ
35 dBZ
30 dBZ
25 dBZ
20 dBZ
15 dBZ
10 dBZ
5 dBZ
-1 K
-2 K
-3 K
-4 K
-5 K
-6 K
-7 K
-8 K
-9 K
950 m²/s²
900 m²/s²
850 m²/s²
800 m²/s²
750 m²/s²
700 m²/s²
650 m²/s²
600 m²/s²
550 m²/s²
500 m²/s²
450 m²/s²
400 m²/s²
350 m²/s²
300 m²/s²
250 m²/s²
200 m²/s²
150 m²/s²
100 m²/s²
46 m/s
44 m/s
42 m/s
40 m/s
38 m/s
36 m/s
34 m/s
32 m/s
30 m/s
28 m/s
26 m/s
24 m/s
22 m/s
20 m/s
16 m/s
12 m/s
8 m/s
4 m/s
30 m/s
28 m/s
26 m/s
24 m/s
22 m/s
20 m/s
18 m/s
16 m/s
14 m/s
12 m/s
10 m/s
8 m/s
6 m/s
4 m/s
2 m/s
3.0
2.8
2.6
2.4
2.2
2.0
1.8
1.6
1.4
1.2
1.0
0.8
0.6
0.4
0.2
15
14
13
12
11
10
9
8
7
6
5
4
3
2
1
90%
80%
70%
60%
50%
40%
30%
20%
10%
42
40
38
36
34
32
30